This is the latest recevied weather packets stored in our database for station/object K8RRT. If no packets are shown the sender has not sent any weather packets the latest 10 day(s).
| Time | Temp. | Humidity | Pressure | Rain* | Wind** | Luminosity | Snow |
|---|---|---|---|---|---|---|---|
| 1777733525 | 11.11° C | 54% | 1013.1 hPa | 0 mm | - | 842 W/m² | - |
| 1777733222 | 10.56° C | 55% | 1013.2 hPa | 0 mm | - | 149 W/m² | - |
| 1777732919 | 11.67° C | 55% | 1012.9 hPa | 0 mm | - | 173 W/m² | - |
| 1777732615 | 11.11° C | 53% | 1012.9 hPa | 0 mm | - | 800 W/m² | - |
| 1777732313 | 11.11° C | 57% | 1013.1 hPa | 0 mm | - | 778 W/m² | - |
| 1777732009 | 10.56° C | 59% | 1012.8 hPa | 0 mm | - | 746 W/m² | - |
| 1777731706 | 10.56° C | 61% | 1012.9 hPa | 0 mm | - | 719 W/m² | - |
| 1777731403 | 10.56° C | 58% | 1012.7 hPa | 0 mm | - | 698 W/m² | - |
| 1777731101 | 10.56° C | 63% | 1012.8 hPa | 0 mm | - | 702 W/m² | - |
| 1777730800 | 10° C | 64% | 1013.1 hPa | 0 mm | - | 689 W/m² | - |
| 1777730496 | 10° C | 68% | 1013 hPa | 0 mm | - | 605 W/m² | - |
| 1777730192 | 10° C | 70% | 1013.1 hPa | 0 mm | - | 602 W/m² | - |
| 1777729889 | 10° C | 76% | 1013.1 hPa | 0 mm | - | 561 W/m² | - |
| 1777729585 | 9.44° C | 79% | 1013 hPa | 0 mm | - | 549 W/m² | - |
| 1777729282 | 8.89° C | 80% | 1013.1 hPa | 0 mm | - | 525 W/m² | - |
| 1777728979 | 8.33° C | 82% | 1012.8 hPa | 0 mm | - | 519 W/m² | - |
| 1777728675 | 7.78° C | 87% | 1013 hPa | 0 mm | - | 451 W/m² | - |
| 1777728373 | 7.78° C | 90% | 1013.1 hPa | 0 mm | - | 417 W/m² | - |
| 1777728070 | 7.78° C | 94% | 1013 hPa | 0 mm | - | 422 W/m² | - |
| 1777727766 | 6.67° C | 97% | 1013.1 hPa | 0 mm | - | 373 W/m² | - |
| 1777727463 | 6.67° C | 99% | 1013.2 hPa | 0 mm | - | 306 W/m² | - |
| 1777727161 | 6.67° C | 99% | 1013.2 hPa | 0 mm | - | 292 W/m² | - |
| 1777726859 | 6.11° C | 99% | 1013.2 hPa | 0 mm | - | 253 W/m² | - |
| 1777726554 | 5.56° C | 99% | 1013.3 hPa | 0 mm | - | 383 W/m² | - |
| 1777726252 | 5.56° C | 99% | 1013.2 hPa | 0 mm | - | 354 W/m² | - |
* Rain latest hour (hover to see other rain measurements)
** Current wind speed in m/s (hover to see current wind gust speed)